Regional Weather Roundup
Issued by NWS

Home | Current Version | Previous Version | Graphics & Text | Print | Product List | Glossary On
Versions: 1 2 3 4 5 6 7 8 9 10 11 12 13 14 15 16 17 18 19 20 21 22 23 24 25 26 27 28 29 30 31 32 33 34 35 36 37 38 39 40 41 42 43 44 45 46 47 48 49 50
000
ASUS45 KTFX 232019
RWRMT
MONTANA HOURLY WEATHER ROUNDUP
NATIONAL WEATHER SERVICE GREAT FALLS MT
219 PM MDT WED APR 23 2014

NOTE: "FAIR" INDICATES FEW OR NO CLOUDS BELOW 12000 FEET WITH NO
SIGNIFICANT WEATHER AND/OR OBSTRUCTIONS TO VISIBILITY.

* THESE STATIONS ARE NOT UNDER NWS QUALITY CONTROL. THEY DO NOT
   REPORT WEATHER SUCH AS PRECIPITATION OR FOG.

MTZ001>007-043-232100-
WEST OF THE DIVIDE
CITY           SKY/WX    TMP DP  RH WIND       PRES   REMARKS
KALISPELL      PTSUNNY   48  28  46 W17G28    29.72F
MISSOULA       CLOUDY    46  28  50 W10       29.83F
BUTTE          PTSUNNY   37  21  52 SW13G21   29.81F WCI  29
MULLAN PASS    LGT SNOW  28  27  96 CALM      29.77R VSB 1
* ESSEX        N/A       40  26  57 SE3G11     N/A
* LINCOLN      N/A       44  23  43 SW7G21     N/A
* LOOKOUT PASS N/A       33  30  89 E2         N/A
* PLAINS APT   PTSUNNY   46  32  58 VRB5      29.85S
* POLSON       N/A       47  30  52 S4G11      N/A
* SEELEY LAKE  N/A       38  29  70 SW4G17     N/A
* THOMP F APT  PTSUNNY   39  22  51 SW10G16    N/A   WCI  32
$$

MTZ008-052>055-232100-
SOUTHWEST MONTANA
CITY           SKY/WX    TMP DP  RH WIND       PRES   REMARKS
BOZEMAN        CLOUDY    45  21  38 W15G32    29.81S
DILLON         PTCLDY    43  27  53 W22G31    29.82F
W YELLOWSTONE  N/A       41  21  45 W3G17      N/A
* THREE FORKS  PTCLDY    48  23  37 W25G33     N/A
* BOULDER HILL N/A       36  16  44 SW12G21    N/A   WCI  28
* MONIDA PASS  N/A       33  16  50 W11        N/A   WCI  24
* RAYNOLDS PAS N/A       31  20  64 SW16G22    N/A   WCI  20
* WHITEHALL    N/A       46  22  39 W11G25     N/A
* WISE RIVER   N/A       40  21  47 W20G31     N/A   WCI  30
$$

MTZ009>010-012-014-046-048-049-054-232100-
EAST SLOPES AND CENTRAL MONTANA
CITY           SKY/WX    TMP DP  RH WIND       PRES   REMARKS
CUT BANK       SUNNY     50  19  29 W36G46    29.59S
GREAT FALLS    PTCLDY    52  23  32 SW30G39   29.66S
HELENA         PTCLDY    50  23  35 W23G35    29.75F
MALMSTROM AFB  PTCLDY    52  21  30 SW25G44   29.64S
* CONRAD       SUNNY     52  19  27 SW26G35    N/A
* DEARBORN     N/A       49  20  32 S24G37     N/A
* EAST GLACIER N/A       35  25  67 W30G39     N/A   WCI  22
* MONARCH      N/A       41  14  33 SW22G31    N/A
* PENDROY      N/A       47  16  29 W40G56     N/A
* ROGERS PASS  N/A       38  21  50 SE13G30    N/A   WCI  30
* SAINT MARY   N/A       41  22  47 SW12G28    N/A
* SWEET GRASS  N/A       51  14  23 W30G45     N/A
* WHITE SULPH  N/A       44  21  40 SW9G24     N/A
$$

MTZ011-013-016-021-035-040-045-047-050-051-232100-
NORTH CENTRAL MONTANA
CITY           SKY/WX    TMP DP  RH WIND       PRES   REMARKS
HAVRE          PTCLDY    55  25  31 W35G43    29.54F
LEWISTOWN      PTSUNNY   48  21  34 NW23G35   29.66S
* CHINOOK      PTCLDY    55  25  31 SW31G39   29.54R
* FORT BENTON  PTCLDY    54  19  25 SW23G32   29.64F
* CHESTER      N/A       52  20  28 W23G40     N/A
* DENTON       N/A       50  17  27 W35G47     N/A
* GEYSER       N/A       45  16  31 W19G27     N/A
* JUDITH GAP   N/A       49  16  27 W22G37     N/A
* LOMA         N/A       54  17  23 SW23G37    N/A
$$

MTZ017>020-022>027-061-062-232100-
NORTHEAST MONTANA
CITY           SKY/WX    TMP DP  RH WIND       PRES   REMARKS
GLASGOW        CLOUDY    55  28  35 W24G33    29.54R
GLENDIVE       CLOUDY    54  36  51 W25G32    29.59F
JORDAN         CLOUDY    55  19  24 W23G29    29.61S
SIDNEY         CLOUDY    46  41  83 W21G28    29.56R
WOLF POINT     CLOUDY    54  34  47 W25G35    29.56R
* BEAVER HILL  N/A       45  37  74 W29G39     N/A
* CIRCLE       N/A       55  26  33 W13G23     N/A
* LINDSAY DVD  N/A       49  32  52 W23G30     N/A
* NAVAJO       N/A       43  39  86 NW21G27    N/A
* SACO         N/A       56  26  32 SW26G32    N/A
$$

MTZ028>042-056>058-232100-
SOUTHCENTRAL AND SOUTHEAST MONTANA
CITY           SKY/WX    TMP DP  RH WIND       PRES   REMARKS
BAKER          CLOUDY    48  36  63 W28G46    29.62R
BILLINGS       PTCLDY    55  19  24 W24G37    29.71R
LIVINGSTON     PTCLDY    48  21  34 W29G39    29.76R
MILES CITY     CLOUDY    54  48  80 W25G33    29.66S
* EKALAKA APT  PTSUNNY   45  36  71 W22G32    29.66R
* LAUREL APT   PTCLDY    54  18  24 SW30G39    N/A
* ROUNDUP APT  PTCLDY    54  19  25 SW23G31    N/A
* HYSHAM       N/A       50  24  36 NW15       N/A
* LAME DEER    N/A       41  33  73 W14G26     N/A
* REED POINT   N/A       49  23  36 W27G37     N/A
* ROSCOE HILL  N/A       50   7  17 SW7G27     N/A
$$

REGIONAL REPORTS...DAKOTAS
CITY           SKY/WX    TMP DP  RH WIND       PRES   REMARKS
WILLISTON      LGT RAIN  48  43  83 W17G25    29.48R
DICKINSON      CLOUDY    52  37  57 W33G43    29.52R
CROSBY         FOG       48  48 100 E13       29.49R VSB 3
TIOGA          CLOUDY    50  41  71 SE18G29   29.51R
WATFORD CITY   CLOUDY    46  41  83 W17G23    29.52R
BISMARCK       CLOUDY    57  39  51 SE14      29.55S
GRAND FORKS    LGT RAIN  45  43  93 SE14      29.86F
FARGO          CLOUDY    45  39  80 SE23      29.84F
BUFFALO SD     PTSUNNY   50  37  61 NW35G44   29.56R
RAPID CITY     PTSUNNY   61  41  48 N35G44    29.57R
$$

REGIONAL REPORTS...WYOMING/IDAHO/WASHINGTON
CITY           SKY/WX    TMP DP  RH WIND       PRES   REMARKS
GILLETTE       CLOUDY    45  36  71 NW20      29.72R
SHERIDAN       PTCLDY    54  28  37 NW26G35   29.71R
CODY           PTCLDY    48  19  32 W25G35    29.77R
YELLOWSTONE LA PTCLDY    34   9  35 W9G22     29.85R WCI  27
SALMON         PTSUNNY   46  23  40 SW12G23   29.86F
MULLAN PASS    LGT SNOW  28  27  96 CALM      29.77S VSB 1
SAND POINT     PTCLDY    45  39  80 SW7       29.83F
SPOKANE        PTSUNNY   50  28  43 SW17      29.81F
$$

REGIONAL REPORTS...ALBERTA
CITY           SKY/WX    TMP DP  RH WIND       PRES   REMARKS
CALGARY        PTSUNNY   55  18  23 W22G29    29.43F
LETHBRIDGE     PTCLDY    54  16  22 W35G48    29.51R
MEDICINE HAT   PTSUNNY   52  39  61 NW16G25   29.48S
EDMONTON       LGT RAIN  37  34  89 W21G28    29.42R WCI  26
WATERTON GATE  N/A       45  23  42 SW23G35    N/A
CARDSTON       N/A       48  19  32 W23G35     N/A
MILK RIVER     N/A       55  14  20 W29G40     N/A
$$

REGIONAL REPORTS...SASKATCHEWAN
CITY           SKY/WX    TMP DP  RH WIND       PRES   REMARKS
SWIFT CURRENT  LGT RAIN  45  41  86 W17       29.44S
MOOSE JAW      LGT RAIN  46  43  89 SE10      29.47F
REGINA         LGT RAIN  45  43  93 SE24G30   29.50S VSB 3
VAL MARIE      N/A       57  28  33 W24G33     N/A
ASSINIBOIA     N/A       43  39  86 W16        N/A
CORONACH       N/A       43  39  86 W17G23     N/A

$$




USA.gov is the U.S. government's official web portal to all federal, state and local government web resources and services.